Date_and_time,latitude,longitude,wind_speed,RelWindDirFrom,WindDirFrom,air_pressure,air_temperature,relative_humidity,Temp,platform_speed_wrt_ground,air_pressure_at_mean_sea_level,platform_orientation
2018-11-16 23:50,50.6304533333333,-96.9807666666667,12.8,20.0,332,1000.93,-11.3,75,0.95,0.0,1030.24,360.0
2018-11-17 00:00,50.6304533333333,-96.9807683333333,12.2,19.6,335,1001.18,-11.6,78,0.95,0.0,1030.53,0.0
2018-11-17 00:00,50.6304533333333,-96.9807683333333,13.1,13.4,333,1001.30,-11.8,79,0.95,0.0,1030.68,90.0
2018-11-17 00:10,50.630455,-96.9807683333333,11.4,17.2,332,1001.41,-11.9,79,0.96,0.0,1030.82,90.0
2018-11-17 00:20,50.6304533333333,-96.9807683333333,10.4,15.7,327,1001.64,-12.2,79,0.95,0.0,1031.07,90.0
2018-11-17 00:30,50.630455,-96.9807683333333,10.3,18.0,329,1001.85,-12.3,79,0.95,0.0,1031.31,90.0
2018-11-17 00:40,50.630455,-96.98077,10.8,17.6,330,1002.06,-12.4,79,0.96,0.0,1031.55,90.0
2018-11-17 00:50,50.630455,-96.98077,12.9,19.9,334,1002.13,-12.4,76,0.96,0.0,1031.63,90.0
2018-11-17 01:00,50.630455,-96.98077,10.9,16.1,335,1002.32,-12.4,76,0.97,0.0,1031.83,0.0
2018-11-17 01:10,50.630465,-96.9807666666667,10.3,16.6,334,1002.48,-12.4,76,0.97,0.0,1032.02,0.0
2018-11-17 01:20,50.63046,-96.980775,12.0,20.0,337,1002.51,-12.5,74,0.97,0.0,1032.08,0.0
2018-11-17 01:30,50.6304533333333,-96.980765,11.9,17.4,338,1002.57,-12.6,72,0.97,0.0,1032.16,0.0
2018-11-17 01:40,50.6304566666667,-96.9807633333333,10.0,16.2,324,1002.76,-12.6,73,0.97,0.0,1032.37,0.0
2018-11-17 01:50,50.6304583333333,-96.9807666666667,8.7,14.1,314,1002.92,-12.9,75,0.97,0.0,1032.56,0.0
2018-11-17 02:00,50.6304566666667,-96.9807633333333,9.9,16.2,316,1003.04,-13.3,74,0.97,0.0,1032.72,0.0
2018-11-17 02:10,50.6304583333333,-96.9807666666667,10.2,15.0,319,1003.12,-13.7,74,0.97,0.0,1032.84,0.0
2018-11-17 02:20,50.630455,-96.9807566666667,9.8,15.3,320,1003.31,-14.0,74,0.97,0.0,1033.06,0.0
2018-11-17 02:30,50.63046,-96.9807683333333,8.7,13.9,318,1003.48,-14.2,75,0.97,0.0,1033.25,0.0
2018-11-17 02:40,50.6304633333333,-96.980765,8.7,13.4,315,1003.56,-14.4,75,0.97,0.0,1033.35,0.0
2018-11-17 02:50,50.6304583333333,-96.98076,8.0,12.9,315,1003.64,-14.5,76,0.96,0.0,1033.44,0.0
2018-11-17 03:00,50.6304583333333,-96.9807616666667,8.0,11.9,312,1003.75,-14.7,76,0.96,0.0,1033.56,12.6
2018-11-17 03:10,50.63046,-96.9807633333333,9.5,13.5,311,1003.80,-14.8,76,0.94,0.0,1033.62,12.6
2018-11-17 03:20,50.63046,-96.9807633333333,8.8,13.2,308,1004.02,-15.0,76,0.93,0.0,1033.86,12.6
2018-11-17 03:30,50.63046,-96.9807633333333,9.5,14.5,308,1004.07,-15.1,76,0.93,0.0,1033.92,12.6
2018-11-17 03:40,50.63046,-96.980765,10.0,14.4,309,1004.14,-15.2,77,0.93,0.0,1034.02,12.6
2018-11-17 03:50,50.630465,-96.980765,9.6,13.9,312,1004.23,-15.4,77,0.94,0.0,1034.15,12.6
2018-11-17 04:00,50.6304483333333,-96.980755,10.3,17.9,312,1004.22,-15.5,77,0.93,0.0,1034.17,131.7
2018-11-17 04:10,50.6304533333333,-96.9807666666667,9.2,14.4,311,1004.41,-15.5,78,0.93,0.0,1034.38,131.7
2018-11-17 04:20,50.6304533333333,-96.980765,8.5,13.0,308,1004.60,-15.6,78,0.93,0.0,1034.59,131.7
2018-11-17 04:30,50.6304533333333,-96.9807683333333,8.3,12.1,307,1004.70,-15.7,77,0.91,0.0,1034.70,131.7
2018-11-17 04:40,50.6304533333333,-96.9807683333333,8.2,11.2,304,1004.77,-15.7,77,0.91,0.0,1034.79,131.7
2018-11-17 04:50,50.6304533333333,-96.9807683333333,8.3,13.6,308,1004.77,-15.8,77,0.91,0.0,1034.81,131.7
2018-11-17 05:00,50.6304533333333,-96.9807666666667,7.1,11.2,309,1004.89,-15.8,77,0.91,0.0,1034.93,0.0
2018-11-17 05:10,50.6304533333333,-96.9807666666667,7.5,10.8,304,1005.02,-15.8,77,0.92,0.0,1035.08,0.0
2018-11-17 05:20,50.6304533333333,-96.980765,7.9,14.4,302,1005.12,-15.8,76,0.92,0.0,1035.20,0.0
2018-11-17 05:30,50.6304533333333,-96.980765,8.8,13.4,304,1005.14,-15.9,75,0.92,0.0,1035.23,0.0
2018-11-17 05:40,50.6304533333333,-96.980765,7.7,12.5,305,1005.19,-16.0,73,0.91,0.0,1035.29,0.0
2018-11-17 05:50,50.6304533333333,-96.980765,5.9,9.0,293,1005.39,-16.1,73,0.90,0.0,1035.51,0.0
2018-11-17 06:00,50.6304533333333,-96.980765,6.7,8.8,292,1005.47,-16.4,75,0.90,0.0,1035.62,192.6
2018-11-17 06:10,50.6304533333333,-96.980765,6.4,9.3,283,1005.62,-16.6,74,0.90,0.0,1035.79,192.6
2018-11-17 06:20,50.6304533333333,-96.980765,6.3,10.9,285,1005.68,-16.9,74,0.90,0.0,1035.87,192.6
2018-11-17 06:30,50.6304516666667,-96.980765,6.7,9.9,286,1005.62,-17.0,74,0.90,0.0,1035.82,192.6
2018-11-17 06:40,50.6304466666667,-96.9807533333333,6.0,11.4,272,1005.72,-17.1,74,0.90,0.0,1035.93,192.6
2018-11-17 06:50,50.6304433333333,-96.9807583333333,6.9,10.6,283,1005.65,-17.2,74,0.90,0.0,1035.86,192.6
2018-11-17 07:00,50.6304466666667,-96.9807616666667,6.3,9.2,280,1005.64,-17.3,74,0.90,0.0,1035.86,0.0
2018-11-17 07:10,50.6304383333333,-96.98076,6.1,9.0,284,1005.67,-17.4,74,0.89,0.0,1035.90,0.0
2018-11-17 07:20,50.6304433333333,-96.9807616666667,7.4,11.8,290,1005.63,-17.5,74,0.89,0.0,1035.86,0.0
2018-11-17 07:30,50.6304483333333,-96.9807616666667,7.6,11.4,293,1005.61,-17.5,73,0.89,0.0,1035.85,0.0
2018-11-17 07:40,50.63045,-96.9807666666667,7.3,11.2,289,1005.71,-17.6,73,0.89,0.0,1035.97,0.0
2018-11-17 07:50,50.63045,-96.9807633333333,6.5,10.0,286,1005.70,-17.8,74,0.89,0.0,1035.99,0.0
2018-11-17 08:00,50.6304483333333,-96.9807633333333,6.2,8.9,285,1005.75,-17.8,74,0.89,0.0,1036.05,142.0
2018-11-17 08:10,50.6304483333333,-96.9807666666667,4.9,7.7,283,1005.76,-17.8,74,0.88,0.0,1036.08,142.0
2018-11-17 08:20,50.6304483333333,-96.9807666666667,5.0,7.9,280,1005.70,-17.9,74,0.88,0.0,1036.03,142.0
2018-11-17 08:30,50.6304433333333,-96.9807883333333,4.6,8.1,277,1005.67,-18.0,75,0.87,0.0,1036.00,142.0
2018-11-17 08:40,50.6304433333333,-96.9807733333333,4.5,7.0,268,1005.78,-18.0,75,0.87,0.0,1036.13,142.0
2018-11-17 08:50,50.630445,-96.980775,4.1,6.4,264,1005.86,-18.1,75,0.87,0.0,1036.23,142.0
2018-11-17 09:00,50.630435,-96.9807883333333,4.5,6.5,256,1005.82,-18.1,75,0.87,0.0,1036.19,228.4
2018-11-17 09:10,50.63044,-96.98078,4.3,7.0,257,1005.79,-18.1,76,0.86,0.0,1036.16,228.4
2018-11-17 09:20,50.6304416666667,-96.980775,4.1,6.4,264,1005.75,-18.1,76,0.86,0.0,1036.13,228.4
2018-11-17 09:30,50.6304433333333,-96.980775,3.4,6.0,259,1005.76,-18.1,76,0.86,0.0,1036.14,228.4
2018-11-17 09:40,50.6304433333333,-96.9807733333333,4.2,6.9,263,1005.82,-18.1,76,0.86,0.0,1036.21,228.4
2018-11-17 09:50,50.6304433333333,-96.9807733333333,4.4,7.1,264,1005.71,-17.9,75,0.85,0.0,1036.09,228.4
2018-11-17 10:00,50.6304433333333,-96.9807733333333,4.4,6.4,260,1005.63,-18.0,75,0.85,0.0,1036.01,234.7
2018-11-17 10:10,50.630445,-96.9807716666667,4.7,7.3,251,1005.56,-18.0,76,0.84,0.0,1035.94,234.7
2018-11-17 10:20,50.6304566666667,-96.980775,4.3,5.9,238,1005.61,-18.2,76,0.84,0.0,1036.01,234.7
2018-11-17 10:30,50.63046,-96.9808233333333,5.0,7.0,237,1005.65,-18.5,77,0.84,0.0,1036.08,234.7
2018-11-17 10:40,50.63044,-96.9807883333333,5.3,6.8,240,1005.74,-18.5,77,0.83,0.0,1036.17,234.7
2018-11-17 10:50,50.6304383333333,-96.98078,4.9,6.5,237,1005.72,-18.5,78,0.83,0.0,1036.15,234.7
2018-11-17 11:00,50.6304433333333,-96.9807733333333,5.3,7.1,238,1005.71,-18.4,78,0.83,0.0,1036.14,192.6
2018-11-17 11:10,50.6304416666667,-96.9807733333333,4.9,6.6,240,1005.73,-18.2,78,0.83,0.0,1036.15,192.6
2018-11-17 11:20,50.6304433333333,-96.9807716666667,4.9,6.3,236,1005.70,-18.0,78,0.83,0.0,1036.11,192.6
2018-11-17 11:30,50.63043,-96.9807716666667,4.8,6.2,236,1005.64,-17.9,77,0.83,0.0,1036.02,192.6
2018-11-17 11:40,50.63045,-96.9807866666667,4.6,5.9,234,1005.61,-17.8,77,0.82,0.0,1035.98,192.6
2018-11-17 11:50,50.6304466666667,-96.9807783333333,4.4,6.1,240,1005.48,-17.8,77,0.81,0.0,1035.86,192.6
2018-11-17 12:00,50.6304483333333,-96.98078,4.9,7.3,237,1005.45,-17.8,77,0.80,0.0,1035.83,14.5
2018-11-17 12:10,50.6304483333333,-96.980785,5.5,7.0,232,1005.42,-17.8,77,0.80,0.0,1035.81,14.5
2018-11-17 12:20,50.6304316666667,-96.9807633333333,5.4,8.6,239,1005.32,-18.0,78,0.80,0.0,1035.73,14.5
2018-11-17 12:30,50.6304433333333,-96.9807783333333,5.1,6.4,241,1005.14,-17.9,78,0.79,0.0,1035.55,14.5
2018-11-17 12:40,50.6304416666667,-96.9807733333333,5.1,6.5,235,1005.07,-18.0,79,0.79,0.0,1035.47,14.5
2018-11-17 12:50,50.630445,-96.9807733333333,5.4,6.8,227,1005.06,-18.2,79,0.79,0.0,1035.47,14.5
2018-11-17 13:00,50.630445,-96.980775,6.2,8.6,225,1005.09,-18.4,80,0.79,0.0,1035.51,0.0
2018-11-17 13:10,50.6304466666667,-96.9807733333333,6.4,8.0,225,1005.02,-18.4,80,0.79,0.0,1035.41,0.0
2018-11-17 13:20,50.63047,-96.98085,6.8,9.1,225,1004.86,-18.6,80,0.79,0.0,1035.26,0.0
2018-11-17 13:30,50.630445,-96.9807766666667,6.7,8.4,226,1004.71,-18.6,80,0.78,0.0,1035.10,0.0
2018-11-17 13:40,50.630445,-96.98077,6.4,8.1,232,1004.71,-18.5,79,0.78,0.0,1035.09,0.0
2018-11-17 13:50,50.6304383333333,-96.98077,6.8,8.5,228,1004.60,-18.3,79,0.77,0.0,1034.97,0.0
2018-11-17 14:00,50.6304366666667,-96.9807733333333,7.4,10.1,228,1004.55,-18.0,79,0.76,0.0,1034.91,142.0
2018-11-17 14:10,50.63043,-96.9807916666667,7.3,9.5,231,1004.53,-17.6,79,0.75,0.0,1034.86,142.0
2018-11-17 14:20,50.6304366666667,-96.9807733333333,7.0,8.9,228,1004.53,-17.2,79,0.75,0.0,1034.84,142.0
2018-11-17 14:30,50.6304416666667,-96.98077,7.1,10.1,227,1004.41,-16.9,79,0.75,0.0,1034.70,142.0
2018-11-17 14:40,50.6304416666667,-96.98077,7.4,9.6,227,1004.28,-16.5,79,0.72,0.0,1034.55,142.0
2018-11-17 14:50,50.6304416666667,-96.9807733333333,8.1,11.6,231,1004.13,-16.1,79,0.71,0.0,1034.39,142.0
2018-11-17 15:00,50.63044,-96.9807733333333,8.3,10.8,230,1004.05,-15.7,78,0.71,0.0,1034.28,119.2
2018-11-17 15:10,50.6304366666667,-96.9807833333333,7.8,11.1,228,1004.00,-15.3,78,0.71,0.0,1034.21,119.2
2018-11-17 15:20,50.63044,-96.9807833333333,9.2,12.9,226,1003.87,-14.9,77,0.71,0.0,1034.06,119.2
2018-11-17 15:30,50.6304383333333,-96.9807816666667,9.7,13.6,229,1003.82,-14.5,76,0.71,0.0,1033.97,119.2
2018-11-17 15:40,50.6304366666667,-96.98078,10.2,14.8,228,1003.76,-14.1,75,0.71,0.0,1033.87,119.2
2018-11-17 15:50,50.6304383333333,-96.98078,8.8,12.5,230,1003.65,-13.7,74,0.71,0.0,1033.72,119.2
2018-11-17 16:00,50.63044,-96.9807733333333,9.7,13.3,228,1003.54,-13.4,73,0.71,0.0,1033.57,90.0
2018-11-17 16:10,50.6304283333333,-96.9807616666667,11.7,15.5,228,1003.37,-13.3,72,0.70,0.0,1033.37,90.0
2018-11-17 16:20,50.6304533333333,-96.9807716666667,10.7,16.6,221,1003.18,-13.2,71,0.71,0.0,1033.14,90.0
2018-11-17 16:30,50.63045,-96.980775,9.6,14.5,225,1003.11,-12.8,69,0.71,0.0,1033.03,90.0
2018-11-17 16:40,50.6304433333333,-96.980775,12.2,16.9,224,1002.97,-12.4,66,0.71,0.0,1032.84,90.0
2018-11-17 16:50,50.63044,-96.9807733333333,13.5,17.2,217,1002.79,-12.2,64,0.70,0.0,1032.62,90.0
2018-11-17 17:00,50.6304383333333,-96.9807716666667,12.7,16.8,216,1002.66,-11.9,62,0.68,0.0,1032.45,360.0
2018-11-17 17:10,50.6304366666667,-96.980775,12.2,16.9,216,1002.47,-11.6,61,0.67,0.0,1032.21,360.0
2018-11-17 17:20,50.6304316666667,-96.980785,13.2,20.9,226,1002.40,-11.4,59,0.67,0.0,1032.11,360.0
2018-11-17 17:30,50.6304166666667,-96.980785,12.6,18.5,221,1002.18,-11.3,58,0.67,0.0,1031.85,360.0
2018-11-17 17:40,50.63044,-96.980825,15.0,19.2,220,1001.94,-11.2,56,0.68,0.0,1031.56,360.0
2018-11-17 17:50,50.630425,-96.9807883333333,13.7,19.8,220,1001.72,-11.1,55,0.68,0.0,1031.32,360.0
2018-11-17 18:00,50.630425,-96.980785,12.8,18.2,214,1001.51,-10.9,55,0.68,0.0,1031.08,212.5
2018-11-17 18:10,50.630425,-96.9807816666667,13.1,17.4,218,1001.33,-10.9,55,0.70,0.0,1030.90,212.5
2018-11-17 18:20,50.630425,-96.9807816666667,13.2,17.7,220,1001.11,-10.9,54,0.70,0.0,1030.65,212.5
2018-11-17 18:30,50.63044,-96.98078,13.4,17.4,219,1000.89,-11.1,55,0.70,0.0,1030.41,212.5
2018-11-17 18:40,50.63044,-96.9807766666667,13.1,17.3,216,1000.67,-11.0,57,0.70,0.0,1030.17,212.5
2018-11-17 18:50,50.6304383333333,-96.98078,13.0,18.1,224,1000.57,-10.9,57,0.70,0.0,1030.04,212.5
2018-11-17 19:00,50.6304366666667,-96.98078,12.3,17.0,219,1000.34,-10.6,58,0.70,0.0,1029.77,234.7
2018-11-17 19:10,50.6304333333333,-96.98078,12.1,15.8,215,1000.07,-10.5,59,0.69,0.0,1029.47,234.7
2018-11-17 19:20,50.630435,-96.98078,12.2,16.5,224,999.92,-10.3,59,0.69,0.0,1029.29,234.7
2018-11-17 19:30,50.6304366666667,-96.9807783333333,12.4,17.6,221,999.77,-10.2,59,0.69,0.0,1029.13,234.7
2018-11-17 19:40,50.6304366666667,-96.9807783333333,10.2,15.0,220,999.62,-10.0,59,0.70,0.0,1028.96,234.7
2018-11-17 19:50,50.630435,-96.9807766666667,11.8,17.5,217,999.33,-10.0,58,0.70,0.0,1028.65,234.7
2018-11-17 20:00,50.630435,-96.9807766666667,13.0,19.5,218,999.09,-10.0,59,0.70,0.0,1028.40,360.0
2018-11-17 20:10,50.6303983333333,-96.9807583333333,14.7,18.6,216,998.94,-10.0,59,0.70,0.0,1028.26,360.0
2018-11-17 20:20,50.6304333333333,-96.9807733333333,14.2,18.8,215,998.83,-10.1,60,0.71,0.0,1028.15,360.0
2018-11-17 20:30,50.630395,-96.9807983333333,12.1,19.8,218,998.69,-9.9,60,0.72,0.0,1028.00,360.0
2018-11-17 20:40,50.6304316666667,-96.9807716666667,12.4,17.7,221,998.53,-9.9,60,0.72,0.0,1027.82,360.0
2018-11-17 20:50,50.6304333333333,-96.9807733333333,13.2,20.1,213,998.22,-9.9,60,0.72,0.0,1027.48,360.0
2018-11-17 21:00,50.63041,-96.980785,13.0,19.0,219,998.08,-9.8,60,0.72,0.0,1027.33,360.0
2018-11-17 21:10,50.6304316666667,-96.9807733333333,12.0,16.1,210,997.84,-9.7,61,0.72,0.0,1027.07,360.0
2018-11-17 21:20,50.6304483333333,-96.9807683333333,13.3,19.2,216,997.76,-9.6,61,0.74,0.0,1026.97,360.0
2018-11-17 21:30,50.630425,-96.9807633333333,12.8,21.0,219,997.54,-9.7,61,0.75,0.0,1026.74,360.0
2018-11-17 21:40,50.6304316666667,-96.98077,14.8,22.2,222,997.36,-9.8,61,0.76,0.0,1026.56,360.0
2018-11-17 21:50,50.6304383333333,-96.9807733333333,13.6,19.1,218,997.11,-9.9,61,0.77,0.0,1026.32,360.0
2018-11-17 22:00,50.6304333333333,-96.9807716666667,14.0,19.2,215,996.82,-10.0,62,0.78,0.0,1026.02,119.2
2018-11-17 22:10,50.6304316666667,-96.9807716666667,13.2,17.6,214,996.67,-10.2,63,0.78,0.0,1025.88,119.2
2018-11-17 22:20,50.6304366666667,-96.98077,13.6,18.2,211,996.46,-10.4,64,0.79,0.0,1025.67,119.2
2018-11-17 22:30,50.6304316666667,-96.98077,15.8,20.3,212,996.28,-10.6,64,0.79,0.0,1025.49,119.2
2018-11-17 22:40,50.6304283333333,-96.9807716666667,13.8,19.8,217,996.24,-10.8,65,0.80,0.0,1025.46,119.2
2018-11-17 22:50,50.6304233333333,-96.98077,13.4,19.6,216,996.04,-11.0,66,0.80,0.0,1025.26,119.2
2018-11-17 23:00,50.6304283333333,-96.98077,13.2,19.4,211,995.76,-11.3,67,0.80,0.0,1024.98,165.5
2018-11-17 23:10,50.6304333333333,-96.98076,15.5,20.2,213,995.66,-11.5,67,0.81,0.0,1024.89,165.5
2018-11-17 23:20,50.6304333333333,-96.98077,14.4,19.5,215,995.61,-11.6,67,0.81,0.0,1024.85,165.5
